This is the latest recevied weather packets stored in our database for station/object KK7RJD. If no packets are shown the sender has not sent any weather packets the latest 10 day(s).
| Time | Temp. | Humidity | Pressure | Rain* | Wind** | Luminosity | Snow |
|---|---|---|---|---|---|---|---|
| 1777996182 | 6.67° C | 42% | 1016.1 hPa | 0 mm | - | 379 W/m² | - |
| 1777995878 | 6.67° C | 43% | 1016 hPa | 0 mm | - | 690 W/m² | - |
| 1777995574 | 6.11° C | 44% | 1016 hPa | 0 mm | - | 601 W/m² | - |
| 1777995271 | 5.56° C | 45% | 1016.4 hPa | 0 mm | - | 570 W/m² | - |
| 1777994968 | 5° C | 45% | 1016.2 hPa | 0 mm | - | 534 W/m² | - |
| 1777994666 | 4.44° C | 47% | 1016.4 hPa | 0 mm | - | 169 W/m² | - |
| 1777994365 | 5° C | 46% | 1016.4 hPa | 0 mm | - | 157 W/m² | - |
| 1777994062 | 5° C | 47% | 1016.4 hPa | 0 mm | - | 212 W/m² | - |
| 1777993759 | 5.56° C | 46% | 1016.4 hPa | 0 mm | - | 200 W/m² | - |
| 1777993457 | 5.56° C | 48% | 1016.6 hPa | 0 mm | - | 246 W/m² | - |
| 1777993156 | 5° C | 50% | 1016.4 hPa | 0 mm | - | 552 W/m² | - |
| 1777992854 | 4.44° C | 52% | 1016.4 hPa | 0 mm | - | 240 W/m² | - |
| 1777992552 | 3.89° C | 52% | 1016.6 hPa | 0 mm | - | 236 W/m² | - |
| 1777992250 | 3.89° C | 52% | 1016.6 hPa | 0 mm | - | 210 W/m² | - |
| 1777991947 | 3.89° C | 54% | 1016.6 hPa | 0 mm | - | 178 W/m² | - |
| 1777991644 | 3.89° C | 54% | 1016.4 hPa | 0 mm | - | 171 W/m² | - |
| 1777991341 | 3.89° C | 54% | 1016.5 hPa | 0 mm | - | 191 W/m² | - |
| 1777991039 | 3.33° C | 54% | 1016.6 hPa | 0 mm | - | 157 W/m² | - |
| 1777990736 | 3.33° C | 54% | 1016.4 hPa | 0 mm | - | 157 W/m² | - |
| 1777990433 | 3.33° C | 57% | 1016.6 hPa | 0 mm | - | 137 W/m² | - |
| 1777989826 | 2.78° C | 57% | 1016.7 hPa | 0 mm | - | 151 W/m² | - |
| 1777989523 | 2.78° C | 56% | 1016.6 hPa | 0 mm | - | 124 W/m² | - |
| 1777989220 | 2.78° C | 57% | 1016.7 hPa | 0 mm | - | 110 W/m² | - |
| 1777988916 | 2.78° C | 57% | 1016.6 hPa | 0 mm | - | 106 W/m² | - |
| 1777988613 | 2.78° C | 58% | 1016.4 hPa | 0 mm | - | 100 W/m² | - |
* Rain latest hour (hover to see other rain measurements)
** Current wind speed in m/s (hover to see current wind gust speed)